Estación de Lolol
Ultimos registro cada 15 minutos 31
| N° | Estación | Fecha / Hora | Temperatura | Humedad | Lluvia | Velocidad | Dirección | Radiación | Presion |
| 31 | Lolol | 10-05-2026 07:30 | 6,9 | 85 | 0 | 0 | 133 | 5 | 1012,3 |
| 30 | Lolol | 10-05-2026 07:15 | 6,4 | 85 | 0 | 0 | 242 | 0 | 1012,8 |
| 29 | Lolol | 10-05-2026 07:00 | 6,8 | 84 | 0 | 0 | 195 | 0 | 1012,7 |
| 28 | Lolol | 10-05-2026 06:45 | 6,9 | 85 | 0 | 0 | 190 | 0 | 1012,6 |
| 27 | Lolol | 10-05-2026 06:30 | 6,6 | 84 | 0 | 0 | 151 | 0 | 1012,5 |
| 26 | Lolol | 10-05-2026 06:15 | 6,9 | 83 | 0 | 0 | 146 | 0 | 1012,4 |
| 25 | Lolol | 10-05-2026 06:00 | 7,4 | 80 | 0 | 0 | 180 | 0 | 1012,4 |
| 24 | Lolol | 10-05-2026 05:45 | 8,1 | 78 | 0 | 0 | 176 | 0 | 1012,5 |
| 23 | Lolol | 10-05-2026 05:30 | 9,4 | 73 | 0 | 0 | 256 | 0 | 1012,4 |
| 22 | Lolol | 10-05-2026 05:15 | 11,4 | 68 | 0 | 0 | 236 | 0 | 1012,3 |
| 21 | Lolol | 10-05-2026 05:00 | 13 | 62 | 0 | 0,9 | 20 | 0 | 1012,3 |
| 20 | Lolol | 10-05-2026 04:45 | 13,2 | 61 | 0 | 0,9 | 40 | 0 | 1012,2 |
| 19 | Lolol | 10-05-2026 04:30 | 11,8 | 66 | 0 | 1,8 | 119 | 0 | 1012,3 |
| 18 | Lolol | 10-05-2026 04:15 | 11 | 70 | 0 | 0,9 | 282 | 0 | 1012,6 |
| 17 | Lolol | 10-05-2026 04:00 | 10,8 | 71 | 0 | 2,2 | 308 | 0 | 1012,6 |
| 16 | Lolol | 10-05-2026 03:45 | 12,6 | 64 | 0 | 0,9 | 246 | 0 | 1012,8 |
| 15 | Lolol | 10-05-2026 03:30 | 13,8 | 60 | 0 | 3,1 | 101 | 0 | 1012,7 |
| 14 | Lolol | 10-05-2026 03:15 | 13,1 | 62 | 0 | 0,4 | 61 | 0 | 1012,6 |
| 13 | Lolol | 10-05-2026 03:00 | 13,4 | 62 | 0 | 0,4 | 80 | 0 | 1012,6 |
| 12 | Lolol | 10-05-2026 02:45 | 9,8 | 76 | 0 | 0,4 | 1 | 0 | 1012,9 |
| 11 | Lolol | 10-05-2026 02:30 | 10,3 | 71 | 0 | 0 | 242 | 0 | 1013,3 |
| 10 | Lolol | 10-05-2026 02:15 | 11,9 | 67 | 0 | 0 | 217 | 0 | 1013,2 |
| 9 | Lolol | 10-05-2026 02:00 | 13,3 | 62 | 0 | 0,9 | 166 | 0 | 1013,4 |
| 8 | Lolol | 10-05-2026 01:45 | 14,9 | 57 | 0 | 3,6 | 63 | 0 | 1013,2 |
| 7 | Lolol | 10-05-2026 01:30 | 14,4 | 60 | 0 | 2,7 | 49 | 0 | 1013,3 |
| 6 | Lolol | 10-05-2026 01:15 | 14,9 | 57 | 0 | 0 | 41 | 0 | 1013,5 |
| 5 | Lolol | 10-05-2026 01:00 | 14,7 | 59 | 0 | 1,8 | 44 | 0 | 1013,6 |
| 4 | Lolol | 10-05-2026 00:45 | 14,6 | 60 | 0 | 3,6 | 100 | 0 | 1013,6 |
| 3 | Lolol | 10-05-2026 00:30 | 14,1 | 62 | 0 | 1,8 | 53 | 0 | 1013,8 |
| 2 | Lolol | 10-05-2026 00:15 | 13,1 | 64 | 0 | 0 | 230 | 0 | 1013,9 |
| 1 | Lolol | 10-05-2026 00:00 | 12,2 | 70 | 0 | 2,7 | 153 | 0 | 1013,8 |